Flag for U.S.A. Weather past 2 weeks in Sterling Heights, Michigan, U.S.A.

Now
66 °F

Thunderstorms. Mostly cloudy.


Feels Like: 66 °F
Forecast: 69 / 85 °F
Wind: 3 mph from Northeast

Location: Selfridge Air National Guard Base

Current Time: Sep 3, 2015 at 3:59:36 PM

Latest Report: Sep 3, 2015 at 2:55 PM


Visibility: 3 mi

Pressure: 29.99 "Hg

Humidity: 93%

Dew point: 64 °F

Location of Sterling HeightsLocation

Historic Weather in Sterling Heights — Graph

°F

Sterling Heights temperature yesterday

Maximum temperature yesterday: 89 °F (at 2:55 PM)
Minimum temperature yesterday: 68 °F (at 3:58 AM)
Average temperature yesterday: 77 °F

Past Weeks' High & Low Weather Summary

 TemperatureHumidityPressure
High89 °F (Sep 2, 2:55 PM)100% (Aug 28, 6:03 AM)30.23 "Hg (Aug 28, 6:03 AM)
Low50 °F (Aug 28, 6:03 AM)42% (Aug 21, 2:55 PM)29.66 "Hg (Aug 20, 2:58 AM)
Average68 °F78%30.02 "Hg
* Reported Aug 19 2:55 PM — Sep 3 2:55 PM, Sterling Heights, Weather by CustomWeather, © 2015

Note: Actual official high and low records may vary slightly from our data, if they occured in-between our weather recording intervals... More about our weather records

Advertising

Sterling Heights weather history for previous 24 hours

 ConditionsComfort  
Time TempWeatherWind HumidityBarometerVisibility
2:55 PM
Thu, Sep 3
66 °FThunderstorms. Mostly cloudy.3 mph93%29.99 "Hg3 mi
1:55 PM83 °FThunderstorms. Broken clouds.3 mph68%29.94 "Hg7 mi
12:55 PM86 °FScattered clouds.8 mph63%29.94 "Hg7 mi
11:55 AM84 °FPassing clouds.5 mph66%29.96 "Hg7 mi
10:55 AM81 °FPassing clouds.5 mph68%29.96 "Hg7 mi
9:55 AM78 °FPassing clouds.3 mph76%29.97 "Hg7 mi
8:55 AM73 °FPassing clouds.No wind82%29.98 "Hg7 mi
7:55 AM66 °FFog.No wind96%29.98 "Hg7 mi
6:58 AM67 °FClear.2 mph95%29.96 "Hg10 mi
5:58 AM66 °FClear.3 mph98%29.94 "Hg7 mi
4:58 AM68 °FClear.1 mph97%29.94 "Hg10 mi
3:58 AM68 °FClear.1 mph96%29.95 "Hg10 mi
2:58 AM69 °FClear.2 mph95%29.95 "Hg10 mi
1:58 AM69 °FClear.3 mph92%29.94 "Hg10 mi
12:58 AM70 °FClear.5 mph92%29.95 "Hg10 mi
11:58 PM
Wed, Sep 2
69 °FClear.5 mph93%29.95 "Hg10 mi
10:58 PM73 °FClear.3 mph85%29.96 "Hg10 mi
9:58 PM74 °FClear.2 mph82%29.96 "Hg10 mi
8:58 PM76 °FScattered clouds.3 mph77%29.96 "Hg10 mi
7:55 PM76 °FMostly cloudy.6 mph76%29.96 "Hg10 mi
6:55 PM77 °FThundershowers. More clouds than sun.12 mph65%29.96 "Hg7 mi
6:04 PM88 °FThunderstorms. Scattered clouds.12 mph55%29.91 "Hg7 mi
4:55 PM88 °FScattered clouds.6 mph57%29.93 "Hg7 mi
3:55 PM87 °FScattered clouds.8 mph58%29.96 "Hg7 mi
Weather by CustomWeather, © 2015

See weather overviewHow to use our weather pages